Content
SEND FEEDBACK

Daily
Averages
Monthly
Summary
Canada

RICHMOND NATURE PARK, BRITISH COLUMBIA


Home > North America > Canada > British Columbia
Elevation: 10 feet     Latitude: 49 10N     Longitude: 123 05W

WEATHER
 
SELECT A DAY
Number of Records: 194,771;   Date Range: 1/1/95 - 8/27/14
 
SHARE

PRINT THIS DATA

[ ← Previous Day ]
WEATHER ALMANAC - MAY 3, 2013
[ Next Day → ]
[ °C ]   °F
Weather ElementAverageHighLow
Temperature53.5 °F61 °F (5:00 pm)44.6 °F (2:00 am)
Dewpoint46.3 °F50 °F (12:00 pm)41 °F (2:00 am)
Humidity75.9 %87 % (1:00 am)55 % (5:00 pm)
Barometer30.37 in30.44 in (8:00 am)30.27 in (8:00 pm)
Wind Speed10.2 mph19.6 mph (11:00 am)
Wind Gust19.6 mph (6:00 pm)
Weather ElementAverage
Visibility29.7 mi
Wind DirectionWNW (283 °)

Weather ElementTotal
Precipitation---
Heating Degree Days12.2 (Base 65)
Growing Degree Days2.8 (Base 50)
Averaged from 27 records on May 3, 2013
WEATHER CONDITIONS BREAKOUT
WIND DIRECTION BREAKOUT
WEATHER BY HOUR - MAY 3, 2013
[ °C ]   °F
Local TimeTemperatureDewpointHumidityBarometerVisibilityWind DirectionWind SpeedGust SpeedPrecipitationEventsConditions
1:00 AM48.2 °F44.6 °F87 %30.43 in30.0 miWNW (300°)4.6 mphClear
2:00 AM44.6 °F41.0 °F87 %30.43 in30.0 miEast (90°)2.3 mphClear
3:00 AM44.6 °F41.0 °F87 %30.42 in30.0 miEast (90°)2.3 mphClear
4:00 AM46.4 °F42.8 °F87 %30.43 in30.0 miCalmClear
5:00 AM46.0 °F41.0 °F76 %30.43 in28.0 miNNW (340°)4.6 mph
5:00 AM46.4 °F41.0 °F81 %30.43 in30.0 miNNW (340°)4.6 mphClear
6:00 AM46.4 °F42.8 °F87 %30.43 in30.0 miNNW (330°)9.2 mphMostly Cloudy
7:00 AM48.2 °F42.8 °F82 %30.43 in30.0 miNNW (340°)9.2 mphMostly Cloudy
8:00 AM50.0 °F46.4 °F87 %30.44 in30.0 miWSW (250°)11.5 mphScattered Clouds
9:00 AM53.6 °F46.4 °F77 %30.44 in30.0 miNW (310°)16.1 mphPartly Cloudy
10:00 AM53.6 °F48.2 °F82 %30.42 in30.0 miWNW (300°)18.4 mphClear
11:00 AM56.0 °F49.0 °F69 %30.41 in28.0 miWNW (300°)19.6 mph
11:00 AM55.4 °F48.2 °F77 %30.41 in30.0 miWNW (300°)18.4 mphPartly Cloudy
12:00 PM57.2 °F50.0 °F77 %30.40 in30.0 miWNW (300°)18.4 mphPartly Cloudy
1:00 PM57.2 °F50.0 °F77 %30.39 in30.0 miNW (310°)16.1 mphPartly Cloudy
2:00 PM59.0 °F50.0 °F72 %30.37 in30.0 miNW (310°)17.3 mphPartly Cloudy
3:00 PM59.0 °F50.0 °F72 %30.36 in30.0 miNW (310°)17.3 mphPartly Cloudy
4:00 PM59.0 °F48.2 °F67 %30.33 in30.0 miWNW (300°)11.5 mph17.3 mphClear
5:00 PM61.0 °F49.0 °F55 %30.32 in28.0 miWNW (300°)13.8 mphClear
5:00 PM60.8 °F48.2 °F63 %30.32 in30.0 miWNW (300°)13.8 mphPartly Cloudy
6:00 PM60.8 °F48.2 °F63 %30.30 in30.0 miNW (310°)13.8 mph19.6 mphPartly Cloudy
7:00 PM59.0 °F48.2 °F67 %30.29 in30.0 miWNW (300°)6.9 mphPartly Cloudy
8:00 PM57.2 °F46.4 °F67 %30.27 in30.0 miNW (310°)4.6 mphMostly Cloudy
9:00 PM55.4 °F46.4 °F72 %30.27 in30.0 miNNW (340°)5.8 mphPartly Cloudy
10:00 PM53.6 °F48.2 °F82 %30.28 in30.0 miWNW (300°)9.2 mphClear
11:00 PM53.0 °F46.0 °F71 %30.27 in28.0 miNNW (330°)2.3 mphClear
11:00 PM53.6 °F46.4 °F77 %30.27 in30.0 miNNW (330°)3.5 mphPartly Cloudy
Hourly data recorded from CYVR, located miles away from Richmond Nature Park, British Columbia







STORIES FROM OUR PARTNERS